| time (UTC) | temp C | wind direction | speed KPH | gust KPH | rain 1hr cm | rain 24hr cm | rain mn cm | humidity % | barometer mb |
| 20260507033818 | 6 | 337 | 3.2 | 8.0 | 0.00 | 0.00 | 0.00 | 1 | 1014.5 |
| 20260507032703 | 6 | 336 | 3.2 | 8.0 | 0.00 | 0.00 | 0.00 | 1 | 1014.4 |
| 20260507031803 | 6 | 335 | 3.2 | 8.0 | 0.00 | 0.00 | 0.00 | 1 | 1014.4 |
| 20260507030903 | 6 | 334 | 3.2 | 6.4 | 0.00 | 0.00 | 0.00 | 1 | 1014.3 |
| 20260507030003 | 6 | 334 | 3.2 | 6.4 | 0.00 | 0.00 | 0.00 | 1 | 1014.3 |
| 20260507025403 | 6 | 334 | 1.6 | 4.8 | 0.00 | 0.00 | 0.00 | 1 | 1014.3 |
| 20260507024503 | 6 | 334 | 1.6 | 4.8 | 0.00 | 0.00 | 0.00 | 1 | 1014.2 |
| 20260507023818 | 6 | 335 | 1.6 | 4.8 | 0.00 | 0.00 | 0.00 | 1 | 1014.2 |
| 20260507022703 | 6 | 335 | 1.6 | 4.8 | 0.00 | 0.00 | 0.00 | 1 | 1014.1 |
| 20260507022018 | 6 | 335 | 1.6 | 4.8 | 0.00 | 0.00 | 0.00 | 1 | 1014.1 |
| 20260507020903 | 6 | 335 | 1.6 | 4.8 | 0.00 | 0.00 | 0.00 | 1 | 1013.9 |
| 20260507020003 | 6 | 335 | 1.6 | 4.8 | 0.00 | 0.00 | 0.00 | 1 | 1013.9 |
| 20260507015403 | 6 | 335 | 1.6 | 4.8 | 0.00 | 0.00 | 0.00 | 1 | 1013.8 |
| 20260507014503 | 6 | 334 | 1.6 | 4.8 | 0.00 | 0.00 | 0.00 | 1 | 1013.8 |
| 20260507013603 | 6 | 334 | 1.6 | 4.8 | 0.00 | 0.00 | 0.00 | 1 | 1013.7 |
| 20260507012703 | 6 | 334 | 3.2 | 4.8 | 0.00 | 0.00 | 0.00 | 1 | 1013.8 |
| 20260507011803 | 6 | 334 | 1.6 | 6.4 | 0.00 | 0.00 | 0.00 | 2 | 1013.8 |
| 20260507010903 | 6 | 333 | 3.2 | 9.7 | 0.00 | 0.00 | 0.00 | 3 | 1013.8 |
| 20260507010004 | 6 | 336 | 3.2 | 9.7 | 0.00 | 0.00 | 0.00 | 4 | 1013.7 |
| 20260507005403 | 6 | 340 | 3.2 | 8.0 | 0.00 | 0.00 | 0.00 | 4 | 1013.8 |
| 20260507004503 | 7 | 341 | 3.2 | 8.0 | 0.00 | 0.00 | 0.00 | 5 | 1013.8 |
| 20260507003603 | 7 | 341 | 3.2 | 8.0 | 0.00 | 0.00 | 0.00 | 5 | 1013.8 |
| 20260507002918 | 7 | 341 | 3.2 | 8.0 | 0.00 | 0.00 | 0.00 | 6 | 1013.8 |
| 20260507001803 | 7 | 340 | 3.2 | 8.0 | 0.00 | 0.00 | 0.00 | 7 | 1013.6 |
| 20260507000903 | 7 | 340 | 3.2 | 8.0 | 0.00 | 0.00 | 0.00 | 8 | 1013.7 |
| 20260507000004 | 7 | 341 | 3.2 | 8.0 | 0.00 | 0.00 | 0.00 | 9 | 1013.7 |
| 20260506235618 | 7 | 343 | 3.2 | 8.0 | 0.00 | 0.00 | 0.00 | 10 | 1013.8 |
| 20260506234503 | 7 | 344 | 1.6 | 6.4 | 0.00 | 0.00 | 0.00 | 12 | 1013.7 |
| 20260506233603 | 7 | 344 | 1.6 | 6.4 | 0.00 | 0.00 | 0.00 | 14 | 1013.7 |
| 20260506232703 | 7 | 344 | 1.6 | 6.4 | 0.00 | 0.00 | 0.00 | 16 | 1013.8 |
| 20260506232017 | 7 | 344 | 1.6 | 6.4 | 0.00 | 0.00 | 0.00 | 16 | 1013.7 |
| 20260506231117 | 7 | 344 | 1.6 | 6.4 | 0.00 | 0.00 | 0.00 | 16 | 1013.7 |
| 20260506230004 | 7 | 344 | 3.2 | 8.0 | 0.00 | 0.00 | 0.00 | 16 | 1013.8 |
| 20260506225403 | 7 | 343 | 3.2 | 8.0 | 0.00 | 0.00 | 0.00 | 17 | 1013.7 |
| 20260506224503 | 7 | 340 | 3.2 | 8.0 | 0.00 | 0.00 | 0.00 | 19 | 1013.7 |
| 20260506223603 | 7 | 339 | 3.2 | 6.4 | 0.00 | 0.00 | 0.00 | 20 | 1013.6 |
| 20260506222703 | 7 | 338 | 3.2 | 8.0 | 0.00 | 0.00 | 0.00 | 22 | 1013.5 |
| 20260506222017 | 7 | 336 | 3.2 | 8.0 | 0.00 | 0.00 | 0.00 | 22 | 1013.5 |
| 20260506220903 | 7 | 335 | 3.2 | 8.0 | 0.00 | 0.00 | 0.00 | 25 | 1013.5 |
| 20260506220007 | 8 | 340 | 3.2 | 6.4 | 0.00 | 0.00 | 0.00 | 27 | 1013.5 |
| 20260506215403 | 8 | 340 | 3.2 | 8.0 | 0.00 | 0.00 | 0.00 | 29 | 1013.5 |
| 20260506214503 | 8 | 340 | 3.2 | 8.0 | 0.00 | 0.00 | 0.00 | 31 | 1013.4 |
| 20260506213818 | 8 | 341 | 3.2 | 8.0 | 0.00 | 0.00 | 0.00 | 33 | 1013.4 |
| 20260506212703 | 8 | 342 | 3.2 | 9.7 | 0.00 | 0.00 | 0.00 | 36 | 1013.4 |
| 20260506211803 | 8 | 338 | 3.2 | 8.0 | 0.00 | 0.00 | 0.00 | 39 | 1013.3 |
| 20260506210903 | 8 | 346 | 3.2 | 8.0 | 0.00 | 0.00 | 0.00 | 42 | 1013.2 |
| 20260506210217 | 8 | 344 | 3.2 | 9.7 | 0.00 | 0.00 | 0.00 | 45 | 1013.1 |
| 20260506205617 | 8 | 340 | 3.2 | 9.7 | 0.00 | 0.00 | 0.00 | 47 | 1013.1 |
| 20260506204503 | 9 | 356 | 4.8 | 12.9 | 0.00 | 0.00 | 0.00 | 50 | 1013.1 |
| 20260506203603 | 9 | 342 | 4.8 | 14.5 | 0.00 | 0.00 | 0.00 | 53 | 1013.1 |
| 20260506202703 | 9 | 356 | 4.8 | 16.1 | 0.00 | 0.00 | 0.00 | 55 | 1013.0 |
| 20260506201803 | 10 | 348 | 4.8 | 14.5 | 0.00 | 0.00 | 0.00 | 58 | 1012.9 |
| 20260506200903 | 10 | 356 | 4.8 | 16.1 | 0.00 | 0.00 | 0.00 | 61 | 1012.8 |
| 20260506200004 | 10 | 1 | 6.4 | 17.7 | 0.00 | 0.00 | 0.00 | 65 | 1012.8 |
| 20260506195403 | 10 | 352 | 4.8 | 14.5 | 0.00 | 0.00 | 0.00 | 66 | 1012.7 |
| 20260506194508 | 10 | 346 | 6.4 | 16.1 | 0.00 | 0.00 | 0.00 | 68 | 1012.6 |
| 20260506193603 | 10 | 349 | 6.4 | 16.1 | 0.00 | 0.00 | 0.00 | 69 | 1012.4 |
| 20260506192703 | 10 | 351 | 4.8 | 16.1 | 0.00 | 0.00 | 0.00 | 69 | 1012.3 |
| 20260506191803 | 10 | 340 | 4.8 | 14.5 | 0.00 | 0.00 | 0.00 | 68 | 1012.2 |
| 20260506190903 | 11 | 355 | 6.4 | 12.9 | 0.00 | 0.00 | 0.00 | 67 | 1012.0 |
| 20260506190004 | 11 | 358 | 8.0 | 19.3 | 0.00 | 0.00 | 0.00 | 66 | 1012.0 |
| 20260506185403 | 11 | 359 | 8.0 | 19.3 | 0.00 | 0.00 | 0.00 | 65 | 1011.9 |
| 20260506184503 | 11 | 349 | 8.0 | 20.9 | 0.00 | 0.00 | 0.00 | 66 | 1011.8 |
| 20260506183604 | 11 | 6 | 8.0 | 22.5 | 0.00 | 0.00 | 0.00 | 65 | 1011.7 |
| 20260506182703 | 11 | 358 | 6.4 | 20.9 | 0.00 | 0.00 | 0.00 | 65 | 1011.6 |
| 20260506182017 | 11 | 5 | 8.0 | 19.3 | 0.00 | 0.00 | 0.00 | 66 | 1011.6 |
| 20260506180903 | 11 | 8 | 6.4 | 19.3 | 0.00 | 0.00 | 0.00 | 65 | 1011.4 |
| 20260506180004 | 11 | 4 | 6.4 | 20.9 | 0.00 | 0.00 | 0.00 | 65 | 1011.3 |
| 20260506175618 | 12 | 5 | 6.4 | 20.9 | 0.00 | 0.00 | 0.00 | 65 | 1011.2 |
| 20260506174717 | 12 | 4 | 6.4 | 25.7 | 0.00 | 0.00 | 0.00 | 63 | 1011.1 |
| 20260506173603 | 12 | 356 | 6.4 | 17.7 | 0.00 | 0.00 | 0.00 | 63 | 1011.0 |
| 20260506172703 | 12 | 2 | 8.0 | 24.1 | 0.00 | 0.00 | 0.00 | 63 | 1010.9 |
| 20260506171803 | 12 | 359 | 8.0 | 25.7 | 0.00 | 0.00 | 0.00 | 62 | 1010.8 |
| 20260506170903 | 12 | 356 | 9.7 | 25.7 | 0.00 | 0.00 | 0.00 | 62 | 1010.8 |
| 20260506170004 | 12 | 6 | 9.7 | 25.7 | 0.00 | 0.00 | 0.00 | 63 | 1010.7 |
| 20260506165403 | 13 | 353 | 9.7 | 27.4 | 0.00 | 0.00 | 0.00 | 63 | 1010.7 |
| 20260506164503 | 13 | 356 | 11.3 | 25.7 | 0.00 | 0.00 | 0.00 | 62 | 1010.6 |
| 20260506163818 | 13 | 8 | 11.3 | 25.7 | 0.00 | 0.00 | 0.00 | 62 | 1010.5 |
| 20260506162703 | 13 | 360 | 11.3 | 27.4 | 0.00 | 0.00 | 0.00 | 61 | 1010.5 |
| 20260506161803 | 13 | 4 | 9.7 | 27.4 | 0.00 | 0.00 | 0.00 | 61 | 1010.5 |
| 20260506160903 | 13 | 360 | 9.7 | 24.1 | 0.00 | 0.00 | 0.00 | 61 | 1010.4 |
| 20260506160003 | 13 | 4 | 8.0 | 29.0 | 0.00 | 0.00 | 0.00 | 63 | 1010.4 |
| 20260506155403 | 13 | 5 | 8.0 | 29.0 | 0.00 | 0.00 | 0.00 | 63 | 1010.4 |
| 20260506154503 | 13 | 14 | 8.0 | 20.9 | 0.00 | 0.00 | 0.00 | 62 | 1010.3 |
| 20260506153603 | 13 | 13 | 9.7 | 22.5 | 0.00 | 0.00 | 0.00 | 62 | 1010.3 |
| 20260506152703 | 14 | 10 | 8.0 | 22.5 | 0.00 | 0.00 | 0.00 | 61 | 1010.4 |
| 20260506151803 | 14 | 2 | 8.0 | 25.7 | 0.00 | 0.00 | 0.00 | 61 | 1010.4 |
| 20260506150903 | 14 | 7 | 9.7 | 25.7 | 0.00 | 0.00 | 0.00 | 60 | 1010.4 |
| 20260506150217 | 14 | 10 | 9.7 | 25.7 | 0.00 | 0.00 | 0.00 | 60 | 1010.3 |
| 20260506145403 | 15 | 8 | 8.0 | 25.7 | 0.00 | 0.00 | 0.00 | 59 | 1010.2 |
| 20260506144503 | 15 | 3 | 8.0 | 29.0 | 0.00 | 0.00 | 0.00 | 55 | 1010.2 |
| 20260506143603 | 15 | 8 | 9.7 | 27.4 | 0.00 | 0.00 | 0.00 | 55 | 1010.2 |
| 20260506142703 | 15 | 18 | 8.0 | 24.1 | 0.00 | 0.00 | 0.00 | 54 | 1010.1 |
| 20260506141803 | 15 | 18 | 8.0 | 24.1 | 0.00 | 0.00 | 0.00 | 54 | 1010.1 |
| 20260506140903 | 15 | 11 | 9.7 | 22.5 | 0.00 | 0.00 | 0.00 | 53 | 1010.1 |
| 20260506140004 | 15 | 3 | 9.7 | 27.4 | 0.00 | 0.00 | 0.00 | 54 | 1010.1 |
| 20260506135403 | 15 | 14 | 9.7 | 27.4 | 0.00 | 0.00 | 0.00 | 54 | 1010.1 |
| 20260506134503 | 14 | 16 | 9.7 | 24.1 | 0.00 | 0.00 | 0.00 | 55 | 1010.1 |
| 20260506133817 | 14 | 5 | 9.7 | 24.1 | 0.00 | 0.00 | 0.00 | 54 | 1010.1 |
| 20260506132703 | 14 | 6 | 9.7 | 29.0 | 0.00 | 0.00 | 0.00 | 54 | 1010.1 |
| 20260506132018 | 14 | 13 | 9.7 | 29.0 | 0.00 | 0.00 | 0.00 | 54 | 1010.0 |
| 20260506130903 | 14 | 14 | 8.0 | 20.9 | 0.00 | 0.00 | 0.00 | 51 | 1010.1 |
| 20260506130004 | 15 | 9 | 8.0 | 24.1 | 0.00 | 0.00 | 0.00 | 52 | 1010.0 |
| 20260506125403 | 15 | 6 | 6.4 | 24.1 | 0.00 | 0.00 | 0.00 | 50 | 1009.9 |
| 20260506124717 | 15 | 350 | 4.8 | 20.9 | 0.00 | 0.00 | 0.00 | 50 | 1009.9 |
| 20260506123603 | 15 | 13 | 6.4 | 24.1 | 0.00 | 0.00 | 0.00 | 48 | 1009.8 |
| 20260506122703 | 15 | 345 | 4.8 | 14.5 | 0.00 | 0.00 | 0.00 | 48 | 1009.8 |
| 20260506121803 | 15 | 5 | 6.4 | 22.5 | 0.00 | 0.00 | 0.00 | 45 | 1009.8 |
| 20260506121116 | 16 | 4 | 6.4 | 22.5 | 0.00 | 0.00 | 0.00 | 45 | 1009.8 |
| 20260506120003 | 15 | 348 | 6.4 | 20.9 | 0.00 | 0.00 | 0.00 | 44 | 1009.7 |
| 20260506115403 | 16 | 4 | 8.0 | 22.5 | 0.00 | 0.00 | 0.00 | 44 | 1009.7 |
| 20260506114503 | 16 | 5 | 8.0 | 20.9 | 0.00 | 0.00 | 0.00 | 45 | 1009.7 |
| 20260506113603 | 15 | 358 | 9.7 | 24.1 | 0.00 | 0.00 | 0.00 | 49 | 1009.7 |
| 20260506112703 | 15 | 14 | 11.3 | 30.6 | 0.00 | 0.00 | 0.00 | 50 | 1009.7 |
| 20260506111803 | 15 | 1 | 8.0 | 27.4 | 0.00 | 0.00 | 0.00 | 49 | 1009.8 |
| 20260506110903 | 15 | 358 | 6.4 | 20.9 | 0.00 | 0.00 | 0.00 | 47 | 1009.7 |
| 20260506110004 | 14 | 12 | 9.7 | 22.5 | 0.00 | 0.00 | 0.00 | 49 | 1009.7 |
| 20260506105403 | 14 | 17 | 11.3 | 30.6 | 0.00 | 0.00 | 0.00 | 47 | 1009.8 |
| 20260506104503 | 15 | 5 | 8.0 | 25.7 | 0.00 | 0.00 | 0.00 | 49 | 1009.8 |
| 20260506103603 | 15 | 1 | 8.0 | 25.7 | 0.00 | 0.00 | 0.00 | 49 | 1009.8 |
| 20260506102703 | 14 | 4 | 8.0 | 27.4 | 0.00 | 0.00 | 0.00 | 51 | 1009.7 |
| 20260506101803 | 14 | 1 | 8.0 | 22.5 | 0.00 | 0.00 | 0.00 | 52 | 1009.8 |
| 20260506100903 | 14 | 13 | 9.7 | 25.7 | 0.00 | 0.00 | 0.00 | 51 | 1009.7 |
| 20260506100004 | 14 | 3 | 8.0 | 24.1 | 0.00 | 0.00 | 0.00 | 51 | 1009.6 |
| 20260506095617 | 14 | 7 | 9.7 | 24.1 | 0.00 | 0.00 | 0.00 | 53 | 1009.6 |
| 20260506094503 | 13 | 9 | 6.4 | 20.9 | 0.00 | 0.00 | 0.00 | 52 | 1009.6 |
| 20260506093603 | 13 | 1 | 8.0 | 27.4 | 0.00 | 0.00 | 0.00 | 53 | 1009.6 |
| 20260506092703 | 13 | 11 | 9.7 | 27.4 | 0.00 | 0.00 | 0.00 | 55 | 1009.6 |
| 20260506091803 | 13 | 11 | 8.0 | 27.4 | 0.00 | 0.00 | 0.00 | 57 | 1009.5 |
| 20260506090903 | 13 | 12 | 8.0 | 25.7 | 0.00 | 0.00 | 0.00 | 59 | 1009.6 |
| 20260506090004 | 13 | 4 | 8.0 | 27.4 | 0.00 | 0.00 | 0.00 | 60 | 1009.5 |
| 20260506085618 | 13 | 1 | 6.4 | 20.9 | 0.00 | 0.00 | 0.00 | 62 | 1009.5 |
| 20260506084503 | 12 | 12 | 11.3 | 25.7 | 0.00 | 0.00 | 0.00 | 63 | 1009.5 |
| 20260506083603 | 12 | 8 | 9.7 | 24.1 | 0.00 | 0.00 | 0.00 | 64 | 1009.5 |
| 20260506082703 | 12 | 13 | 9.7 | 25.7 | 0.00 | 0.00 | 0.00 | 65 | 1009.5 |
| 20260506081803 | 12 | 13 | 9.7 | 22.5 | 0.00 | 0.00 | 0.00 | 66 | 1009.4 |
| 20260506080903 | 12 | 11 | 8.0 | 25.7 | 0.00 | 0.00 | 0.00 | 64 | 1009.4 |
| 20260506080218 | 12 | 7 | 8.0 | 20.9 | 0.00 | 0.00 | 0.00 | 61 | 1009.4 |
| 20260506072703 | 12 | 12 | 8.0 | 24.1 | 0.00 | 0.00 | 0.00 | 53 | 1009.3 |
| 20260506071803 | 12 | 10 | 8.0 | 24.1 | 0.00 | 0.00 | 0.00 | 48 | 1009.3 |
| 20260506070903 | 12 | 13 | 8.0 | 22.5 | 0.00 | 0.00 | 0.00 | 40 | 1009.3 |
| 20260506061803 | 11 | 17 | 9.7 | 22.5 | 0.00 | 0.00 | 0.00 | 1 | 1009.1 |
| 20260506060903 | 11 | 2 | 6.4 | 22.5 | 0.00 | 0.00 | 0.00 | 1 | 1009.0 |
| 20260506050903 | 10 | 16 | 9.7 | 22.5 | 0.00 | 0.00 | 0.00 | 1 | 1009.0 |
| 20260506044503 | 10 | 18 | 9.7 | 27.4 | 0.00 | 0.00 | 0.00 | 1 | 1008.9 |
| 20260506043603 | 10 | 11 | 8.0 | 19.3 | 0.00 | 0.00 | 0.00 | 1 | 1008.9 |
| 20260506042703 | 10 | 1 | 8.0 | 22.5 | 0.00 | 0.00 | 0.00 | 1 | 1008.9 |
| 20260506041803 | 10 | 355 | 6.4 | 20.9 | 0.00 | 0.00 | 0.00 | 1 | 1008.8 |
| 20260506041118 | 10 | 356 | 6.4 | 19.3 | 0.00 | 0.00 | 0.00 | 4 | 1008.9 |
| 20260506040003 | 10 | 1 | 6.4 | 17.7 | 0.00 | 0.00 | 0.00 | 8 | 1009.0 |
| 20260506035619 | 10 | 5 | 4.8 | 17.7 | 0.00 | 0.00 | 0.00 | 9 | 1008.9 |